Lid_Strength_Index
7 7 9 8 8 8 8 8 9 9 8 8 9 9 8 6 6 6 6 5 5 4 3 2 2 1 1 0 0 0 0 -0 -0 0 0 0 1 -0 -0 -1 -2 -2 -2 -2
7 9 8 8 7 7 8 9 9 9 7 7 9 9 7 6 7 6 6 5 5 4 4 3 2 2 1 1 0 0 0 -0 -0 -0 -0 -0 0 -0 -1 -1 -1 -2 -2 -2
8 8 8 7 8 8 9 9 9 9 9 7 8 10 9 7 6 6 5 4 4 4 4 3 3 2 1 1 1 0 0 -0 -0 -1 -0 -0 -0 -0 0 -0 -0 -1 -1 -2
8 7 8 8 9 8 10 8 9 9 10 11 9 12 10 9 8 7 6 5 5 4 4 3 3 3 2 1 0 0 -0 -0 -0 -1 -0 0 1 2 1 0 -0 -0 -1 -1
8 8 8 9 9 8 9 8 9 9 10 10 11 11 11 8 10 8 6 5 5 4 4 4 4 3 2 1 1 0 -0 -0 -0 -1 -0 0 1 1 0 0 -0 -0 -1 -1
7 6 7 7 8 7 8 9 9 10 10 12 11 11 11 10 9 7 6 5 5 5 4 4 3 2 2 2 1 1 0 0 -0 -0 -0 -0 0 1 1 1 1 1 1 -0
8 8 7 7 8 7 8 9 13 13 13 13 11 11 10 7 7 6 6 5 5 5 5 4 3 3 2 1 1 1 1 1 -0 -0 -0 -0 0 0 1 1 2 1 2 1
11 12 8 6 8 9 9 9 12 16 14 13 12 13 10 8 7 6 5 5 5 5 4 4 3 3 2 2 1 2 1 1 0 0 0 -0 -0 1 1 1 1 1 2 1
11 11 8 7 7 8 9 10 10 12 13 13 11 11 9 7 7 6 6 5 5 5 4 3 3 3 3 2 2 1 2 1 1 1 0 0 0 0 1 1 1 2 1 2
8 12 9 8 7 8 9 9 11 10 15 16 13 13 11 10 8 7 6 6 5 4 4 3 3 3 2 2 1 1 1 2 1 1 1 1 1 1 1 1 3 1 1 0
8 9 10 9 10 11 10 10 11 11 12 15 16 13 9 9 8 7 6 5 5 4 4 3 3 2 2 2 2 2 2 2 2 2 2 2 1 2 2 3 2 2 1 2
8 9 11 12 10 9 9 10 10 12 14 12 13 13 8 7 7 6 6 5 5 4 3 3 3 2 2 2 2 2 2 2 2 2 2 2 2 3 3 2 3 3 3 3
8 10 13 12 10 9 10 10 10 11 11 13 15 13 8 7 7 6 6 5 4 4 3 3 3 2 2 2 2 3 2 3 3 2 2 4 4 4 4 4 4 4 4 4
6 10 11 14 11 10 12 11 10 11 14 13 13 12 9 8 8 6 5 5 4 4 3 3 3 3 2 2 3 3 3 3 2 4 5 5 4 4 5 5 5 5 5 5
7 11 11 11 11 11 11 11 10 11 11 13 12 11 9 8 7 6 5 5 5 4 4 3 3 3 2 3 3 3 3 3 4 5 4 4 5 5 5 6 6 6 5 5
8 12 10 11 10 10 11 10 11 11 10 11 10 11 7 6 5 6 5 5 5 5 4 4 3 3 4 3 3 4 3 4 5 4 4 5 5 6 6 6 6 6 6 6
10 11 11 14 12 12 13 11 11 10 9 10 11 9 7 7 6 6 5 5 5 4 4 4 3 3 3 3 4 4 5 5 5 5 5 6 6 6 6 6 6 6 6 5
10 11 11 13 12 18 11 9 8 9 9 8 8 7 6 6 5 5 4 4 5 4 4 3 3 3 3 4 4 5 6 6 5 6 7 6 6 6 6 5 4 4 4 4
8 9 13 16 15 12 11 9 9 10 10 7 8 7 6 5 5 5 4 4 4 3 4 4 4 5 5 5 5 7 7 5 6 6 6 6 6 5 4 3 2 3 2 3
9 9 11 13 17 17 11 8 6 7 12 7 7 6 6 6 10 7 4 4 4 4 5 6 6 6 6 6 7 6 6 6 7 6 6 5 3 3 3 3 3 2 1 2
11 11 12 13 14 12 8 7 6 14 12 6 6 6 6 7 6 5 4 5 5 6 8 7 7 7 7 7 6 6 7 7 6 6 4 4 3 2 3 3 2 3 2 3
12 13 13 13 15 17 6 7 10 7 5 5 5 5 6 5 4 5 5 6 7 8 7 8 9 9 8 6 6 7 7 5 4 3 3 4 4 3 2 2 2 2 2 2
12 10 12 11 11 7 5 6 4 4 5 5 5 5 4 5 5 6 6 7 9 8 8 9 9 8 6 6 7 7 4 3 4 4 3 3 2 3 4 3 2 2 2 2
9 8 9 9 8 7 5 4 4 4 5 4 4 5 5 5 6 6 7 9 8 8 9 8 7 7 8 7 4 3 3 4 4 4 4 3 4 4 3 3 3 3 2 2
8 8 9 9 7 6 5 6 5 4 4 5 5 5 6 6 6 6 8 8 8 9 8 7 7 8 7 4 4 5 4 4 4 4 4 4 5 4 3 3 3 1 2 3
8 8 9 9 6 6 6 5 4 4 5 5 5 6 6 6 6 8 9 8 9 8 8 7 8 6 4 5 4 2 2 3 4 5 5 5 4 4 4 3 1 5 5 6